SJ-6C (29505 NORAD) Tracking and Keplerian Element Data

This shows tracking and keplerian element data for the satellite.

Feedback or suggestion? Click here.




ElementValue
Catalog29505
NameSJ-6C
Epoch Orbit66091
Epoch Day345.83488663
Epoch Year2018
RAAN351.1318
Inclination97.8267
Eccentricity0.0004527
Argument of Perigee86.8916
Mean Anonmoly273.2845
Mean Motion14.94480974
Decay Rate-1.1E-07
L11 29505U 06046A 18345.83488663 -.00000011 00000-0 42909-5 0 9996
L22 29505 97.8267 351.1318 0004527 86.8916 273.2845 14.94480974660913

Live tracking and technical data element details for SJ-6C (NORAD 29505). SJ-6C can be tracked NOW for your location showing map with azimuth and elevation plus other details from your city location.

Track the satellite on the map from your city or location and see movement details for azimuth, elevation, latitude, longitude, range, height, and movement on the map or in text.







IsCatalogInMostPopularTable: catalog: 29505, numindb: 45
Update: records affected: 1



GetName: 29505 SJ-6C

Hit Count: updated at: Thu, 13 Dec 2018 03:50:05 GMT